Find the Weather for any City, State or Zip Code, or Country:


Mobile Weather


Questions? Comments?
Contact Greg


Winchester Trails
Subdivision Website


Current Maps

Tropical (Hurricane)

Temperature

Heat Index

Windchill

Humidity

Radar

Dew Point

Wind

Visibility

Visible Satellite

Satellite

Fronts

Jet Stream

Flight Rules


Forecast Maps

Temperature Forecast

Maximum Temperature Forecast

Minimum Temperature Forecast

Dewpoint Forecast

Prevalent Weather

12Hr Probability of Precip.

Sky Cover


Health Maps

Houston Pollen/Mold Report

UV Forecast

Air Quality

Peak Air Quality Index


Miscellaneous

NOAA Aviation Weather

NWS Houston/Galveston

National Weather Service (main page)

National Hurricane Center

NOAA Historical Hurricane Tracks

Wunderground
Hurricane Archive


Harris Co. Flood Warning System

Harris Co. Storm Risk Calculator

U.S. Drought Monitor

TX Lake/Reservoir Data & Levels

Eric 'SciGuy' Berger Weather Blog

Dr. Jeff Masters Weather Blog

Houston Traffic

TxDOT Highway Conditions

Houston Electricity Outage Tracker

Houston Bayport Cruise Terminal Webcam

Galveston CruiseCam


This Station's Data

NOAA-Style Reports

Weather Detail

Daily Tabular Data


This Station's Position:
Lat. 29° 54' 14.18" N
Lon. 95° 34' 24.45" W
Elevation 112 ft (34.1 m)


Visit this station's partner in Cypress, 8sm west of here!


Weather Instruments:


Vantage Pro 2


Current Weather Conditions

This page refreshes automatically every 5 minutes and is best viewed at 1024x768 or higher resolution.
Powered by Ambient Weather Virtual Weather Station V15.00

Page last refreshed Wed December 17, 2014 at 11:34 pm CST (UTC -6) (2014-12-18 05:34 UTC/GMT/Zulu)

Metric & Other Conversions for Current Observations
Current Temp14.4 °CHigh Temp17.7 °CLow Temp7.3 °C
Current Dew Point12.1 °CHeat Index17.2 °CWind Chill14.4 °C
Barometer1020.36 mbarBarometer765.3 mmHgBarometer14.8 psi
Density Altitude:  -157 ft (-47.9 m)Pressure Altitude:  -84 ft (-25.6 m)
Barometer readings for a Standard Day (59.0 °F/15.0 °C @ sea level):  29.92" Hg, 1013.25 mbar, 757.83 mmHg, 14.70 psi


No Warnings, Watches, or Advisories for Harris and surrounding counties.


Local Radar Other Radar Graphics Local Satellite
Click for larger image WunderMap®

High Definition Radar (KHOU)

Regional Radar
Click for larger image
Radar & Satellite Graphics by Weather Underground




National Weather Service Forecast for: Jersey Village TX
Issued by: National Weather Service Houston, TX
Updated: 6:20 pm CST Dec 17, 2014
 
Overnight

Chance Showers. Chance for Measurable Precipitation 40%
Chance
Showers
Thursday

Chance Showers. Chance for Measurable Precipitation 50%
Chance
Showers
Thursday
Night

Showers Likely. Chance for Measurable Precipitation 70%
Showers
Likely
Friday

Showers Likely. Chance for Measurable Precipitation 70%
Showers
Likely
Friday
Night

Slight Chc Showers. Chance for Measurable Precipitation 20%
Slight Chc
Showers
Saturday

Mostly Sunny
Mostly
Sunny
Saturday
Night

Partly Cloudy
Partly
Cloudy
Sunday

Partly Sunny
Partly
Sunny
Sunday
Night

Partly Cloudy
Partly
Cloudy
Lo 59 °F Hi 74 °F Lo 60 °F Hi 64 °F Lo 47 °F Hi 60 °F Lo 43 °F Hi 58 °F Lo 46 °F

Hazardous Weather Outlook
 

Overnight
 
A 40 percent chance of showers and thunderstorms. Patchy fog. Otherwise, cloudy, with a low around 59. East wind around 5 mph.
Thursday
 
A 50 percent chance of showers and thunderstorms. Patchy fog before 9am. Otherwise, cloudy, with a high near 74. Southeast wind around 5 mph becoming calm.
Thursday Night
 
Showers likely and possibly a thunderstorm. Cloudy, with a low around 60. Northeast wind around 5 mph. Chance of precipitation is 70%.
Friday
 
Showers likely and possibly a thunderstorm. Cloudy, with a high near 64. Northeast wind 5 to 10 mph. Chance of precipitation is 70%.
Friday Night
 
A 20 percent chance of showers before midnight. Mostly cloudy, with a low around 47. North wind 10 to 15 mph.
Saturday
 
Mostly sunny, with a high near 60.
Saturday Night
 
Partly cloudy, with a low around 43.
Sunday
 
Partly sunny, with a high near 58.
Sunday Night
 
Partly cloudy, with a low around 46.
Monday
 
Mostly sunny, with a high near 66.
Monday Night
 
A 20 percent chance of showers. Partly cloudy, with a low around 52.
Tuesday
 
A 20 percent chance of showers. Mostly sunny, with a high near 65.
Tuesday Night
 
Mostly clear, with a low around 43.
Wednesday
 
Sunny, with a high near 63.

 

Forecast from NOAA-NWS for Jersey Village TX.

Follow this link for a current verbose area forecast discussion from the NWS.
Forecast Script by Saratoga Weather | Animated icons by Meteo Treviglio


Radar and Satellite Imagery


US Current Fronts w/Radar

Southcentral Infrared Satellite

US Jet Stream

Visible Satellite
Click to go to WUnderground
Sea Surface Temp & Tropical System Map
Map Graphics by Weather Underground


Rainfall Information
Yesterday's Rain: 0 in
Last Rainfall:
Surrounding Area Rainfall Data
NOAA Avg. Rainfall For: Month to Date
(1971-2000)
Month to Date
(1981-2010)
Year to Date
(1971-2000)
Year to Date
(1981-2010)
Jersey Village: 2.12 in
(-1.79 in)
2.1 in
(-1.77 in)
48.46 in
(-9.56 in)
50.5 in
(-11.6 in)
Intercontinental (KIAH) 2.06 in 2.17 in 46.21 in 48.2 in
Hobby (KHOU) 2.08 in 2.29 in 52.26 in 52.91 in
NOTE:  The numbers in parenthesis under the Jersey Village data above indicate how far ahead (green) or behind (red) this station's rain total is compared to the NOAA 1971-2000 and 1981-2010 climate normals data for today's date (Dec 17).


Other Current Regional Observations (METARs)

(Ordered by straight-line statute mile distance from this weather station)

A Few More Observations/METARs of Interest to Greg


Weather Almanac

NOAA/NWS Daily Historical Weather Browser
Major SE Texas Weather Events

Records and Normals for Dec 17
Temperature Forecast Normal Record
High 70° 60° 85°
(1924)
Low 59°
39°
17°
(1972)
Highs & Lows Observed at This Station
  Today Yesterday For 12/2014 For 2014
High Temp 63.9°F at 1:39pm 64.6°F at 2:48pm 79.9°F on 12/5/14 97.6°F on 9/11/14
Low Temp 45.1°F at 4:36am 49.1°F at 9:56pm 42.7°F on 12/9/14 32.6°F on 11/19/14
High Dew Point 55.3°F at 6:33pm 41.5°F at 2:46pm 70.8°F on 12/5/14 79.4°F on 9/16/14
Low Dew Point 37.6°F at 7:15am 33.6°F at 8:16am 33.2°F on 12/2/14 17.5°F on 11/14/14
High Humidity 86% at 7:29pm 70% at 9:25pm 96% on 12/1/14 96% on 11/6/14
Low Humidity 63% at 12:00am 41% at 12:28pm 41% on 12/16/14 28% on 11/25/14
High Heat Index 66.5°F at 1:39pm 64.7°F at 2:48pm 82.8°F on 12/5/14 110.8°F on 9/10/14
High Barometer 30.16in at 12:00am 30.21in at 10:29am 30.28in on 12/1/14 30.45in on 11/18/14
Low Barometer 29.96in at 5:29pm 30.04in at 12:00am 29.80in on 12/14/14 29.41in on 11/23/14
High Wind Speed 11mph at 12:27pm 15mph at 7:58am 15mph on 12/5/14 27mph on 10/6/14
High Wind Gust 13mph at 12:27pm 17mph at 7:58am 15mph on 12/5/14 27mph on 10/6/14
Low Wind Chill 43.3°F at 7:08am 47.1°F at 7:58am 37.9°F on 12/1/14 24.3°F on 11/13/14

Sun & Moon
Sunrise:  7:11am Sunset:  5:25pm Moon Phase:
21%
Moonrise:  2:42am Moonset:  2:15pm
Star Chart...

 

Local Trend Graphs


MesoNet Local Weather Exchange® Network

Station ID

City 
(Click for Map Location)

Neighborhood 
(Click for History)
Last Update
(Date & Time)

Temp
 (°)

Dew
Point (°)
Humidity 
(%)
Wind 
(mph)
From
the
Gust
(mph) 
Pressure (in) Hourly
Rain (in)
KTXHOUST61 Houston Willow Point 12/17 23:29:06 59.2 23.0 25 0 ENE 0 30.03 0.00
KTXHOUST186 Houston Winchester Trails 12/17 23:29:51 57.9 54.0 86 0 East 0 30.13 0.00
KTXHOUST213 Houston 18220 Tomball Parkway 12/17 23:02:56 59.4 56.0 88 2 WSW 2 29.94 0.00
KTXHOUST332 Houston Cutten Green Sec I 12/17 23:20:00 58.8 57.0 95 0 South 0 30.18 0.00
KTXHOUST178 Houston Schroeder Oaks Village 12/17 23:29:52 59.0 56.0 89 0 ESE 0 30.08 0.00
KTXHOUST291 Houston Steeplechase 12/17 23:29:48 58.5 57.0 96 2 SE 2 29.71 0.00
KTXHOUST216 Houston Cutten Green 12/17 23:29:52 59.2 56.0 89 0 NE 7 30.11 0.00
KTXHOUST232 Houston Rolling Fork 12/17 23:25:30 58.2 55.0 89 1 NE 1 30.10 0.00
KTXHOUST349 Houston Champions Crossing 12/17 23:21:42 58.6 55.0 89 4 SSE 0 29.93 0.00
KTXHOUST407 Houston Northside 12/17 23:26:20 58.6 56.0 90 0

North 0 30.22 0.00
KTXHOUST218 Houston Woodland Trails West 12/17 23:29:54 58.8 56.0 89 0 East 4 30.09 0.00
KTXHOUST121 Houston Norchester, K5WH 12/17 23:00:08 59.2 56.0 90 0 East 6 30.09 0.00
KTXHOUST170 Houston Champions Park 12/17 23:27:25 58.5 55.0 89 0 SSE 0 30.10 0.00
KTXTEXAS12 Texas FM 1960 12/17 23:19:03 59.0 57.0 93 1 NE 0 30.10 0.00
KTXHOUST342 Houston Lakewood Forest at Cypresswood 12/17 23:29:52 59.2 54.0 82 0 West 0 29.88 0.00
KTXHOUST233 Houston Woods of Wimbledon 12/17 23:29:55 59.7 54.0 81 0 East 0 30.11 0.00
KTXHOUST352 Houston Villa Toscana 12/17 23:29:55 59.0 55.0 88 0 ENE 1 30.06 0.00
KTXHOUST260 Houston Villages at Lakepointe 12/17 23:29:48 59.2 57.0 92 0 NNE 5 30.19 0.00
KTXHOUST169 Houston Lakewood Forest 12/17 23:25:05 58.6 56.0 90 0 ESE 0 30.12 0.00
KTXHOUST261 Cypress Heatherwood Village 12/17 23:21:03 59.0 56.0 91 0 East 1 29.57 0.00
KTXSPRIN88 Spring Champions Woods 12/17 23:25:25 58.1 56.0 94 2 ESE 0 29.81 0.00
KTXCYPRE11 Cypress Weiser Airpark 12/17 23:29:27 57.0 52.0 82 0 East 0 30.12 0.00
KTXSPRIN112 Spring Colony Creek Village 12/17 23:26:25 59.5 55.0 85 0 North 0 29.98 0.00
KTXCYPRE42 Cypress Great Oaks 12/17 23:25:24 58.5 56.0 91 1 ENE 1 30.11 0.00
KTXCYPRE79 Cypress Cypress Chase 12/17 23:29:38 59.0 56.0 90 0 North 0 30.09 0.00
KTXHOUST271 Houston Middlegate Village 12/17 23:29:47 58.3 54.0 87 0 South 0 29.91 0.00
KTXCYPRE5 Cypress NW Houston (Wincrest Falls) 12/17 23:29:52 58.7 55.0 88 0 East 0 30.02 0.00
KTXTOMBA14 Tomball Gettysburg 12/17 23:20:20 57.9 57.0 97 0 NNW 0 29.87 0.00
KTXCYPRE83 Cypress Wincrest Falls 12/17 23:27:03 58.3 57.0 95 0 North 0 29.95 0.00
KTXSPRIN9 Spring Wimbledon 12/17 23:29:55 58.6 55.0 87 0 SE 0 30.01 0.00
KTXSPRIN105 Spring Wimbledon Estates & Racquet Club 12/17 23:27:05 64.8 53.0 65 0 North 0 30.09 0.00
KTXSPRIN111 Spring Wimbledon Estates & Racquet Club 12/17 23:26:15 59.7 53.0 77 0 North 0 30.20 0.00
KTXTOMBA9 Tomball Spring Cypress/Eldridge 12/17 23:29:40 59.0 56.0 89 1 NNE 3 30.12 0.00
KTXCYPRE39 Cypress Longwood 12/17 23:25:10 59.2 56.0 90 0 SW 3 30.11 0.00
KDWH Houston Hooks Official Station 12/17 22:53:00 59.0 54.0 83 5 East --- 30.13 ---
KIAH Houston Intercontinental Official Station 12/17 22:53:00 57.0 54.0 89 7 ESE --- 30.12 ---
KMCJ Houston / Dunn Helistop Official Station 12/17 23:15:00 59.0 57.0 94 8 East --- 30.08 ---
KSGR Houston Hull Official Station 12/17 22:53:00 61.0 58.0 90 6 East --- 30.11 ---
KTXCYPRE54 Cypress Canyon Lakes West 12/17 23:29:53 58.0 54.0 88 3 East 6 30.19 0.00
KTXHOUST197 Cypress Canyon Lakes West 58.4 58.4 56.0 91 0 SSE 1 30.03 0.00